Wind_Speed
14 10 13 13 13 14 12 12 13 12 12 15 14 16 17 15 17 20 20 19 19 22 22 22 21 22 24 25 26 26 26 28 29 26 26 27 26 26 24 22 23 25 23 23
11 13 12 15 18 18 13 14 14 14 12 14 14 18 18 19 21 20 20 20 21 23 22 23 24 26 27 29 31 32 31 32 32 32 34 33 31 29 28 26 24 25 26 23
9 8 6 11 15 17 15 16 13 12 11 14 14 21 15 14 16 18 19 20 22 22 22 20 19 20 21 27 33 36 37 37 37 38 37 38 34 33 30 29 28 27 25 24
6 10 11 11 11 11 14 13 13 11 8 10 5 9 9 12 9 13 16 20 21 23 22 18 13 15 18 21 23 28 32 34 38 39 38 39 35 32 30 29 29 27 25 26
5 6 7 12 12 8 8 8 7 9 12 13 15 10 7 9 13 11 12 13 11 13 16 20 22 24 27 26 23 26 29 30 31 33 35 32 34 29 28 29 29 26 28 30
9 9 5 5 8 7 9 7 9 12 12 13 19 15 12 11 8 5 10 12 11 14 19 17 17 18 20 21 21 18 19 20 19 25 28 28 27 28 27 29 27 28 31 34
8 11 10 8 7 11 10 7 7 7 6 9 2 8 20 15 17 13 16 19 17 17 9 12 13 12 12 11 13 16 17 16 17 19 22 25 28 26 27 26 27 31 35 36
7 7 11 10 14 7 13 13 10 7 8 11 6 11 13 10 15 23 16 19 17 10 13 15 10 11 13 14 15 18 19 17 17 19 23 23 24 24 28 29 30 34 37 40
6 8 9 11 12 14 11 16 15 18 25 18 20 25 25 25 25 11 14 10 10 15 16 7 12 16 17 17 14 15 18 17 18 19 21 23 25 27 29 31 34 37 39 42
10 11 13 14 15 18 21 11 8 9 7 15 14 16 16 14 16 15 9 11 18 16 12 18 25 17 21 21 20 16 20 21 22 24 24 26 27 29 31 35 38 39 40 45
16 17 15 17 21 20 16 19 19 19 21 14 16 14 6 9 8 10 16 24 17 12 26 24 28 26 23 25 26 21 23 28 28 27 28 30 32 33 35 37 37 41 45 41
22 13 21 29 23 24 25 26 25 24 21 25 28 32 30 28 24 29 31 28 17 33 28 33 33 34 26 29 30 24 27 31 31 32 33 35 35 35 39 38 41 45 44 36
23 18 20 23 24 27 29 26 28 31 32 39 28 16 5 9 14 16 25 27 34 43 39 43 39 36 35 32 34 33 30 33 36 36 38 38 37 40 40 42 45 44 36 35
28 32 27 28 31 25 21 20 24 29 36 36 51 49 37 33 35 35 39 39 37 43 46 39 37 35 33 32 37 38 38 36 40 41 41 41 40 40 40 43 45 40 34 40
33 38 37 39 37 32 34 40 40 42 41 44 62 56 36 34 35 31 35 34 39 48 38 32 28 29 32 32 34 38 41 38 41 44 43 44 42 41 42 46 45 34 40 45
33 35 34 42 35 37 49 51 46 48 51 56 57 77 37 43 39 39 39 39 36 34 33 27 32 32 32 31 28 33 38 37 42 44 46 45 43 43 46 48 33 40 44 48
40 36 29 44 31 32 47 44 52 58 52 54 62 64 36 39 38 34 34 32 32 36 32 36 32 33 31 29 29 30 37 40 41 44 44 44 44 49 47 34 37 43 48 49
43 40 37 26 11 16 44 23 19 27 37 36 50 52 48 43 41 37 31 34 33 34 34 33 36 35 33 35 33 33 33 37 38 40 43 45 46 42 36 36 43 46 47 46
50 49 30 21 24 43 63 32 29 28 54 37 40 41 40 30 31 31 26 31 30 29 34 33 32 31 33 35 35 34 32 31 34 40 43 42 39 37 39 41 45 43 43 40
51 55 50 26 12 17 68 22 13 21 58 28 28 30 19 20 31 32 20 23 25 30 28 32 37 36 35 34 31 30 29 31 36 38 38 37 38 39 41 44 40 41 37 35
32 49 54 53 29 38 55 26 18 23 26 17 19 29 33 28 31 23 31 28 35 29 32 31 33 34 33 31 29 29 30 32 34 35 36 37 38 40 42 39 39 36 32 30
37 31 41 50 35 33 46 32 43 53 39 34 33 31 28 27 26 35 34 37 35 34 32 36 36 36 31 28 28 29 31 32 34 36 37 39 40 42 38 38 35 31 29 27
37 50 42 40 51 49 33 31 33 37 35 37 31 33 31 32 34 37 38 38 37 38 40 36 31 29 27 26 28 31 32 34 35 36 37 40 39 36 37 35 31 29 27 27
34 38 47 38 48 41 38 41 46 41 35 36 42 40 38 36 39 40 39 40 40 43 38 31 29 28 28 29 31 33 34 35 36 36 38 35 35 36 35 30 26 27 26 25
34 36 46 46 48 44 40 49 47 48 46 41 42 45 44 42 44 48 46 41 41 38 32 28 29 30 32 33 34 35 35 35 36 35 34 35 35 32 28 25 23 26 28 24
32 35 31 25 32 38 40 36 38 44 45 46 45 41 43 43 41 37 33 37 33 31 32 31 34 36 38 38 38 37 36 35 32 33 34 33 30 26 23 23 23 22 16 15
Wind_Direction
286 250 238 232 233 240 251 251 260 261 268 270 265 263 254 253 256 246 255 261 262 272 273 267 254 245 243 244 247 251 256 256 255 259 260 261 261 260 262 270 273 279 270 259
280 260 250 234 235 245 246 257 266 273 260 272 276 269 263 257 254 257 256 262 264 267 268 267 261 255 252 249 250 252 255 256 256 256 256 258 258 261 260 271 275 273 263 257
243 260 264 231 240 247 244 242 257 262 272 283 289 287 260 249 249 255 263 263 264 260 261 261 250 248 252 255 253 254 256 256 254 250 253 254 259 260 265 273 276 275 268 266
262 250 251 243 248 244 240 251 242 259 272 275 291 286 268 258 252 277 268 261 259 256 254 249 255 264 266 262 252 245 244 247 247 247 250 252 259 260 269 280 279 276 270 272
251 258 265 253 245 252 222 231 226 249 264 278 270 262 265 279 287 282 254 263 261 259 256 260 260 263 273 259 252 245 245 247 245 244 248 251 257 266 279 277 273 271 273 280
242 257 269 231 229 212 221 245 261 267 261 256 258 235 277 244 271 260 224 270 255 275 278 277 274 274 262 252 250 246 244 241 238 243 240 248 261 266 272 271 272 277 279 280
240 253 258 235 217 224 223 234 260 229 209 261 200 233 251 257 277 263 259 273 274 290 279 296 287 266 250 254 257 254 250 245 232 232 240 250 255 263 264 265 270 280 278 282
236 237 232 244 225 233 219 232 255 279 278 288 250 253 265 252 257 283 279 254 272 267 282 305 289 276 263 268 275 260 253 242 237 237 241 248 253 257 258 261 282 286 283 288
228 248 239 237 238 226 243 232 250 267 271 271 259 267 275 281 271 268 263 252 266 277 291 305 330 305 274 273 274 257 249 248 246 249 251 258 261 262 262 272 281 288 288 290
247 259 255 238 232 237 230 252 249 232 267 270 257 267 260 279 273 267 231 234 285 293 303 294 313 310 294 283 281 279 269 260 255 255 261 269 269 265 270 277 284 284 287 293
230 239 251 245 231 243 244 242 252 262 260 271 282 269 261 236 232 215 267 282 277 293 308 295 302 309 298 278 280 277 277 264 260 262 266 266 267 267 274 278 280 285 293 290
237 241 245 252 253 248 243 252 253 252 266 249 267 269 265 253 258 262 270 264 246 301 302 300 299 301 290 277 268 269 271 263 261 265 266 264 267 272 278 276 281 287 289 288
247 244 249 250 251 257 251 250 251 256 265 263 265 251 301 271 248 254 260 260 277 290 296 302 293 287 286 268 263 260 266 262 262 265 268 267 269 274 274 276 284 277 294 295
245 247 244 248 254 260 256 246 248 254 258 268 257 269 263 267 265 264 269 272 276 281 302 293 284 281 279 270 258 254 260 260 259 261 263 264 266 268 272 280 274 292 292 295
243 250 253 256 257 258 258 258 258 258 260 258 270 270 268 268 267 268 270 270 282 287 291 285 280 280 281 276 264 257 252 255 259 260 262 261 266 267 274 274 283 291 294 298
244 252 249 257 256 264 266 260 258 257 257 261 269 271 266 270 275 273 271 275 275 278 283 279 283 284 280 278 272 262 251 251 257 260 262 262 266 268 274 277 292 292 296 301
260 249 251 258 256 266 266 259 252 252 255 253 257 273 282 275 276 277 277 272 270 276 273 279 279 280 274 269 271 268 258 256 256 259 260 264 266 272 279 289 290 293 300 302
245 247 247 257 224 226 252 268 255 252 258 251 256 267 275 279 279 278 275 271 274 281 279 269 271 272 270 271 272 269 260 252 252 255 259 264 273 280 287 288 290 297 299 301
245 244 238 233 225 255 265 254 254 247 274 262 261 266 274 284 277 266 278 284 280 271 274 276 276 275 275 275 273 269 261 254 252 254 259 265 273 281 285 288 295 297 299 301
243 241 231 234 227 242 260 262 250 245 266 267 265 262 279 286 262 285 291 277 274 287 274 277 277 277 277 276 271 264 258 254 254 256 261 265 272 279 284 292 293 297 298 301
221 221 221 228 233 252 258 256 243 217 253 267 266 276 280 265 276 274 286 278 291 271 280 278 280 274 272 268 261 255 254 254 256 258 261 266 272 279 288 288 293 295 295 301
220 204 219 226 227 243 254 243 232 261 268 269 276 274 267 271 265 279 274 282 279 275 274 281 274 269 265 260 256 254 252 253 256 260 265 272 279 285 282 286 290 288 291 295
230 222 226 228 233 233 241 243 254 263 256 261 274 271 264 268 280 273 269 276 270 275 283 280 267 263 260 255 252 248 252 255 259 265 271 278 281 278 282 287 286 285 286 290
238 235 231 234 236 238 245 253 258 255 251 261 274 264 260 267 272 268 266 271 274 280 282 271 265 261 253 248 247 251 253 257 264 271 278 275 275 279 284 283 284 288 284 282
239 242 239 243 245 249 247 249 248 255 266 259 251 258 268 272 270 266 262 272 276 276 265 261 256 251 247 247 250 254 258 265 272 274 271 275 279 281 277 276 279 290 286 270
242 236 238 245 243 244 249 256 260 257 250 250 260 270 271 271 272 277 272 271 267 258 258 255 251 247 249 251 256 260 268 273 271 271 274 277 278 272 272 279 284 286 284 262
Height
3129 3132 3131 3133 3134 3133 3133 3134 3135 3135 3135 3132 3132 3132 3132 3133 3132 3132 3132 3133 3133 3133 3134 3134 3135 3136 3136 3135 3135 3135 3134 3134 3134 3135 3136 3137 3138 3139 3139 3138 3138 3137 3137 3136
3128 3126 3128 3127 3127 3128 3129 3131 3131 3131 3129 3128 3129 3127 3126 3127 3127 3127 3128 3129 3129 3127 3127 3127 3128 3129 3129 3130 3129 3128 3128 3128 3128 3130 3130 3131 3132 3133 3133 3132 3132 3132 3132 3130
3125 3124 3122 3122 3123 3124 3125 3127 3129 3130 3127 3125 3123 3120 3119 3120 3121 3122 3121 3122 3121 3121 3121 3120 3120 3121 3122 3122 3121 3122 3122 3122 3122 3123 3124 3125 3127 3127 3127 3127 3126 3126 3126 3125
3121 3121 3120 3121 3121 3121 3124 3124 3124 3125 3125 3123 3122 3118 3116 3117 3116 3117 3116 3115 3116 3115 3116 3116 3116 3116 3116 3116 3115 3114 3114 3114 3114 3117 3119 3119 3121 3122 3121 3122 3121 3121 3121 3120
3121 3117 3117 3117 3120 3119 3122 3120 3122 3123 3122 3121 3119 3120 3109 3110 3111 3113 3112 3111 3111 3111 3112 3111 3110 3110 3110 3108 3108 3107 3107 3108 3110 3112 3115 3116 3117 3118 3118 3116 3117 3115 3115 3113
3116 3115 3115 3116 3116 3117 3118 3118 3118 3118 3119 3114 3110 3113 3102 3105 3108 3108 3107 3107 3107 3108 3107 3106 3105 3103 3101 3101 3101 3102 3103 3103 3105 3107 3108 3110 3110 3110 3110 3109 3109 3108 3106 3104
3113 3112 3113 3113 3114 3115 3116 3118 3114 3110 3110 3102 3105 3107 3100 3100 3101 3102 3103 3102 3102 3102 3101 3100 3099 3098 3098 3098 3098 3098 3097 3097 3098 3099 3101 3104 3104 3105 3104 3101 3101 3101 3097 3095
3111 3111 3108 3110 3111 3114 3112 3115 3111 3104 3099 3099 3102 3095 3094 3093 3094 3096 3096 3096 3098 3096 3096 3095 3095 3095 3095 3094 3093 3092 3092 3091 3091 3093 3094 3094 3095 3095 3093 3092 3093 3091 3088 3086
3108 3108 3106 3106 3108 3112 3109 3107 3108 3106 3103 3100 3094 3089 3088 3087 3087 3090 3089 3091 3092 3091 3091 3091 3091 3091 3090 3088 3087 3086 3086 3086 3087 3087 3087 3088 3087 3086 3085 3085 3083 3082 3080 3077
3105 3106 3104 3102 3103 3105 3104 3104 3103 3102 3096 3088 3079 3080 3082 3082 3084 3084 3084 3086 3086 3085 3085 3083 3082 3081 3082 3081 3080 3080 3080 3080 3081 3081 3081 3080 3080 3080 3079 3078 3078 3074 3072 3067
3101 3100 3101 3099 3096 3098 3099 3100 3098 3096 3092 3084 3077 3075 3075 3078 3079 3080 3081 3079 3079 3078 3078 3076 3076 3075 3074 3074 3073 3073 3072 3071 3071 3071 3072 3072 3072 3071 3072 3070 3068 3066 3063 3060
3094 3093 3092 3093 3092 3090 3091 3092 3094 3090 3084 3078 3074 3062 3072 3074 3075 3075 3073 3072 3070 3069 3069 3068 3067 3065 3065 3064 3063 3064 3064 3063 3063 3063 3062 3061 3062 3063 3061 3059 3056 3054 3051 3048
3090 3085 3085 3086 3087 3083 3081 3085 3085 3084 3081 3069 3067 3059 3065 3066 3066 3065 3063 3062 3061 3061 3059 3058 3055 3053 3053 3053 3052 3050 3051 3052 3052 3052 3052 3052 3052 3051 3049 3047 3046 3042 3041 3038
3082 3079 3077 3074 3076 3077 3075 3074 3076 3076 3071 3064 3043 3047 3062 3062 3058 3058 3056 3056 3054 3049 3049 3045 3042 3040 3040 3040 3042 3042 3041 3041 3042 3043 3042 3042 3040 3036 3038 3038 3033 3032 3028 3025
3071 3067 3070 3067 3069 3069 3066 3062 3066 3063 3061 3056 3023 3030 3054 3053 3049 3049 3048 3044 3040 3038 3039 3034 3031 3030 3029 3028 3027 3028 3030 3031 3032 3032 3031 3029 3029 3028 3026 3023 3023 3020 3018 3015
3062 3057 3061 3051 3060 3060 3050 3049 3054 3050 3045 3039 3034 2996 3049 3038 3039 3037 3036 3035 3031 3028 3027 3025 3022 3019 3019 3018 3016 3015 3017 3018 3019 3019 3019 3018 3018 3017 3015 3012 3010 3011 3008 3001
3051 3052 3052 3035 3053 3054 3027 3028 3032 3027 3034 3033 3023 2999 3036 3030 3027 3026 3025 3022 3018 3017 3016 3015 3012 3010 3008 3007 3006 3006 3006 3007 3008 3007 3007 3008 3009 3007 3005 3004 3002 3000 2995 2989
3037 3041 3044 3036 3042 3033 2995 3014 3017 3018 3014 3019 3010 3006 3011 3013 3014 3015 3015 3012 3009 3008 3005 3004 3001 2999 2998 2997 2996 2995 2996 2996 2998 2999 3001 3000 2998 2997 2995 2993 2991 2987 2981 2976
3025 3031 3029 3028 3027 3010 2980 3005 3006 3004 2988 3006 3001 3000 2999 3001 3001 3001 3001 3000 2999 2998 2997 2995 2994 2992 2989 2987 2986 2985 2985 2986 2988 2990 2989 2990 2989 2988 2986 2983 2981 2976 2971 2966
3008 3014 3018 3015 3012 3003 2955 2996 2996 3000 2967 2994 2991 2990 2992 2994 2988 2990 2990 2989 2990 2988 2987 2987 2985 2983 2981 2978 2977 2977 2976 2976 2977 2978 2980 2980 2978 2975 2976 2973 2970 2965 2962 2958
2992 2995 2994 2993 2995 2981 2973 2991 2990 2992 2975 2981 2983 2984 2985 2982 2981 2981 2979 2979 2980 2977 2977 2977 2975 2974 2972 2970 2970 2969 2969 2969 2968 2970 2970 2968 2968 2966 2965 2962 2961 2957 2952 2950
2976 2981 2978 2980 2981 2970 2968 2976 2972 2968 2973 2972 2972 2972 2973 2976 2975 2972 2970 2970 2969 2967 2967 2966 2962 2962 2962 2961 2963 2964 2963 2961 2961 2962 2962 2961 2961 2957 2953 2951 2949 2945 2944 2942
2960 2952 2960 2960 2949 2951 2953 2958 2960 2961 2962 2961 2963 2962 2962 2963 2964 2964 2963 2963 2961 2958 2957 2955 2953 2953 2953 2952 2953 2955 2957 2957 2956 2954 2953 2951 2950 2949 2946 2940 2939 2937 2935 2935
2942 2945 2944 2946 2937 2946 2946 2949 2951 2952 2950 2949 2952 2952 2951 2950 2951 2952 2952 2951 2951 2949 2947 2946 2946 2945 2945 2944 2944 2946 2946 2945 2947 2947 2945 2943 2939 2938 2938 2931 2931 2929 2928 2926
2934 2934 2930 2926 2931 2933 2934 2933 2939 2939 2941 2940 2941 2941 2941 2941 2939 2938 2938 2938 2939 2939 2938 2936 2935 2937 2939 2938 2938 2938 2939 2938 2937 2937 2935 2933 2933 2929 2929 2926 2923 2922 2920 2919
2924 2927 2927 2920 2919 2919 2921 2922 2925 2925 2929 2929 2928 2928 2929 2927 2928 2928 2927 2928 2927 2927 2927 2927 2927 2925 2928 2926 2926 2928 2929 2927 2927 2927 2925 2923 2922 2924 2921 2919 2916 2915 2912 2912